Weather History for Dutch Harbor, AK

Change the Weather History Date:

Saturday, May 18, 2013

  Actual Average Record
Temperature  
Mean Temperature 37 °F -  
Max Temperature 43 °F 45 °F 55 °F (1992)
Min Temperature 32 °F 37 °F 32 °F (2013)
Degree Days  
Heating Degree Days 28    
Moisture  
Dew Point 25 °F    
Average Humidity 65    
Maximum Humidity 79    
Minimum Humidity 55    
Precipitation  
Precipitation 0.00 in - - ()
Sea Level Pressure  
Sea Level Pressure 30.34 in    
Wind  
Wind Speed 6 mph (ESE)    
Max Wind Speed 15 mph    
Max Gust Speed 20 mph    
Visibility 10 miles    
Events      
Averages and records for this station are not official NWS values.
T = Trace of Precipitation, MM = Missing Value Source: NWS Daily Summary

Daily Weather History Graph

Daily Weather History Graph

Search for Another Location

Airport:

Trip Planner

Search our weather history database for the weather conditions in past years. The results will help you decide how hot, cold, wet, or windy it might be!

Date:

Astronomy

May. 18, 2013 Rise Set
Actual Time 6:58 AM AKDT 11:08 PM AKDT
Civil Twilight 6:11 AM AKDT 11:54 PM AKDT
Nautical Twilight 5:03 AM AKDT 1:04 AM AKDT
Astronomical Twilight 3:35 AM AKDT 2:30 AM AKDT
Moon 3:24 PM AKDT (5/18) 4:00 AM AKDT (5/18)
Length of Visible Light 17h 43m
Length of Day
16h 09m
First Quarter, 56% of the Moon is Illuminated
May 18
First Quarter
May 24
Full
May 31
Last Quarter
Jun 8
New
Jun 16
First Quarter

Hourly Weather History & Observations

Time (AKDT) Temp. Windchill Dew Point Humidity Pressure Visibility Wind Dir Wind Speed Gust Speed Precip Events Conditions
12:56 AM 33.1 °F 27.7 °F 23.0 °F 66% 30.27 in 10.0 mi West 5.8 mph - N/A   Overcast
1:56 AM 33.1 °F 26.1 °F 24.1 °F 70% 30.28 in 10.0 mi West 8.1 mph - N/A   Overcast
2:25 AM 33.8 °F 27.0 °F 24.8 °F 70% 30.27 in 10.0 mi West 8.1 mph - N/A   Overcast
3:56 AM 32.0 °F 28.7 °F 21.9 °F 66% 30.31 in 10.0 mi North 3.5 mph - N/A   Overcast
4:56 AM 32.0 °F 26.4 °F 21.9 °F 66% 30.30 in 10.0 mi NNE 5.8 mph - N/A   Overcast
5:16 AM 32.0 °F 27.5 °F 23.0 °F 69% 30.29 in 10.0 mi NE 4.6 mph - N/A   Overcast
5:36 AM 32.0 °F 27.5 °F 23.0 °F 69% 30.29 in 10.0 mi ENE 4.6 mph - N/A   Overcast
5:56 AM 32.0 °F 27.5 °F 23.0 °F 69% 30.31 in 10.0 mi NE 4.6 mph - N/A   Overcast
6:56 AM 32.0 °F - 23.0 °F 69% 30.32 in 10.0 mi Calm Calm - N/A   Overcast
6:57 AM 32.0 °F 28.7 °F 23.0 °F 69% 30.30 in 10.0 mi NE 3.5 mph - N/A   Overcast
7:56 AM 32.0 °F 28.7 °F 21.9 °F 66% 30.32 in 10.0 mi NE 3.5 mph - N/A   Overcast
7:57 AM 32.0 °F 28.7 °F 21.2 °F 64% 30.31 in 10.0 mi NE 3.5 mph - N/A   Mostly Cloudy
8:56 AM 33.1 °F 26.9 °F 24.1 °F 70% 30.34 in 10.0 mi West 6.9 mph - N/A   Mostly Cloudy
9:56 AM 34.0 °F - 24.1 °F 67% 30.35 in 10.0 mi Calm Calm - N/A   Mostly Cloudy
9:58 AM 33.8 °F - 24.8 °F 70% 30.33 in 10.0 mi Calm Calm - N/A   Scattered Clouds
10:56 AM 35.1 °F 32.2 °F 25.0 °F 67% 30.35 in 10.0 mi NW 3.5 mph - N/A   Scattered Clouds
11:56 AM 37.0 °F 32.4 °F 25.0 °F 62% 30.35 in 10.0 mi East 5.8 mph - N/A   Scattered Clouds
12:56 PM 37.9 °F 35.5 °F 25.0 °F 60% 30.35 in 10.0 mi Variable 3.5 mph - N/A   Scattered Clouds
1:56 PM 39.9 °F 33.4 °F 26.1 °F 58% 30.35 in 10.0 mi South 10.4 mph 17.3 mph N/A   Scattered Clouds
2:56 PM 41.0 °F 34.3 °F 26.1 °F 55% 30.36 in 10.0 mi SE 11.5 mph - N/A   Scattered Clouds
3:56 PM 41.0 °F 33.1 °F 26.1 °F 55% 30.35 in 10.0 mi South 15.0 mph 18.4 mph N/A   Scattered Clouds
4:56 PM 41.0 °F 33.1 °F 27.0 °F 57% 30.36 in 10.0 mi SSE 15.0 mph 19.6 mph N/A   Scattered Clouds
5:56 PM 42.1 °F 35.2 °F 27.0 °F 55% 30.36 in 10.0 mi SSE 12.7 mph 19.6 mph N/A   Scattered Clouds
6:56 PM 42.1 °F 34.9 °F 28.0 °F 58% 30.37 in 10.0 mi SSE 13.8 mph - N/A   Scattered Clouds
7:56 PM 41.0 °F 34.3 °F 28.9 °F 62% 30.38 in 10.0 mi SSE 11.5 mph - N/A   Overcast
8:56 PM 42.1 °F 35.7 °F 28.9 °F 60% 30.38 in 10.0 mi SSE 11.5 mph - N/A   Mostly Cloudy
9:56 PM 41.0 °F 35.2 °F 30.0 °F 65% 30.39 in 10.0 mi SE 9.2 mph - N/A   Clear
10:56 PM 39.9 °F 35.1 °F 30.9 °F 70% 30.39 in 10.0 mi SSE 6.9 mph - N/A   Clear
11:56 PM 39.0 °F 34.0 °F 33.1 °F 79% 30.39 in 10.0 mi SSE 6.9 mph - N/A   Clear